Regional Weather Roundup
Issued by NWS

Home | Current Version | Previous Version | Graphics & Text | Print | Product List | Glossary On
Versions: 1 2 3 4 5 6 7 8 9 10 11 12 13 14 15 16 17 18 19 20 21 22 23 24 25 26 27 28 29 30 31 32 33 34 35 36 37 38 39 40 41 42 43 44 45 46 47 48 49 50
000
ASUS43 KLSX 260157
RWRMO

WEATHER SUMMARY FOR MISSOURI
NATIONAL WEATHER SERVICE SPRINGFIELD MO
900 PM CDT SAT MAR 25 2017

NOTE: "FAIR" INDICATES FEW OR NO CLOUDS BELOW 12,000 FEET WITH NO
       SIGNIFICANT WEATHER AND/OR OBSTRUCTIONS TO VISIBILITY.
       CURRENT SKY AND/OR WEATHER CONDITIONS ARE NOT AVAILABLE FOR
       CHILLICOTHE AND FARMINGTON.

MOZ001>031-035>038-043-044-053-054-260300-
...NORTHERN AND WESTERN MISSOURI...

CITY           SKY/WX    TMP DP  RH WIND       PRES   REMARKS
KANSAS CTY INT CLOUDY    45  44  97 NW10      29.89R
LEE`S SUMMIT   CLOUDY    50  46  86 NW12      29.88R
ST JOSEPH      CLOUDY    45  45 100 NW7       29.91R FOG
CHILLICOTHE      N/A     47  46  97 N6        29.87R
KIRKSVILLE     CLOUDY    49  48  97 N9        29.83S

$$
MOZ066>068-077>081-088>096-101>105-260300-
...SOUTHWEST MISSOURI...

CITY           SKY/WX    TMP DP  RH WIND       PRES   REMARKS
SPRINGFIELD    CLOUDY    48  44  86 W13       29.90R
JOPLIN         CLOUDY    47  44  90 W9        29.93R
BRANSON        CLOUDY    48  46  93 W7        29.92R

$$
MOZ032>034-039>042-045>050-055>058-069>072-260300-
...CENTRAL MISSOURI...

CITY           SKY/WX    TMP DP  RH WIND       PRES   REMARKS
COLUMBIA       NOT AVBL
JEFFERSON CITY CLOUDY    56  51  84 SW7       29.83R
ROLLA          CLOUDY    51  49  92 SW18G25   29.85R
SEDALIA        RAIN      52  32  46 W12       29.84R
WHITEMAN AFB   LGT RAIN  52  52 100 N10       29.83S
WARRENSBURG    CLOUDY    52  50  93 W6        29.85R

$$
MOZ051-052-059>065-260300-
...EAST CENTRAL MISSOURI...

CITY           SKY/WX    TMP DP  RH WIND       PRES   REMARKS
ST LOUIS INTL  MOCLDY    58  53  84 S8        29.84R

$$
MOZ072>076-082>087-097>100-106>115-260300-
...SOUTH CENTRAL AND SOUTHEAST MISSOURI...

CITY           SKY/WX    TMP DP  RH WIND       PRES   REMARKS
CAPE GIRARDEAU MOCLDY    59  56  89 S8        29.88R
POPLAR BLUFF   MOCLDY    60  50  69 SW5       29.88R

$$


USA.gov is the U.S. government's official web portal to all federal, state and local government web resources and services.